RH
53 54 53 56 62 67 71 72 80 81 72 55 45 51 44 34 36 39 45 46 52 54 49 52 53 54 61 75 82 83 84 78 77 82 94 92 82 84 92 94 90 93 95 96 99 98 99 98 94 91 92 90 84 81 83 90 90 78 74 74 72 71 71 75 77 74 70 65 63 61 60 59 57 56 54 56 58 56 54 53 50 50 50 52 57 60 63 64 65 66 68 66 65 69 72 79 75
50 57 55 56 62 74 82 74 82 82 58 48 46 45 39 33 36 40 44 47 53 52 51 54 56 59 59 63 61 67 83 85 82 86 94 90 88 92 93 94 89 91 95 96 98 96 98 96 92 86 85 84 79 77 78 82 84 79 76 75 71 71 73 76 76 71 67 64 63 61 59 60 60 58 54 54 55 54 53 51 51 50 52 57 60 62 64 63 63 65 67 65 65 68 68 76 78
49 58 59 60 69 80 80 74 82 65 43 48 43 34 33 36 39 41 43 45 48 46 49 50 53 56 53 61 63 73 87 80 79 86 92 87 88 95 94 94 86 85 91 94 94 92 95 92 85 83 81 79 76 74 73 76 83 87 85 81 75 75 77 77 75 71 68 66 65 61 62 64 64 61 58 57 55 55 53 51 52 52 56 59 62 64 64 63 61 60 62 63 62 63 61 67 74
49 57 64 68 81 90 78 82 85 53 40 47 40 32 32 36 37 38 40 40 39 41 47 50 57 54 55 74 72 77 87 80 78 81 88 83 84 95 94 92 85 82 88 95 97 93 94 88 81 83 81 79 81 79 81 86 90 91 87 83 78 74 74 74 73 70 68 66 64 62 62 63 63 64 62 60 57 57 55 53 54 55 59 60 64 64 62 61 60 59 58 59 59 60 62 62 62
50 60 69 73 84 85 76 79 69 45 37 37 35 30 29 33 34 35 34 34 34 39 43 49 60 54 55 68 65 78 86 78 76 75 84 82 81 94 93 87 82 81 88 95 96 91 89 84 79 80 79 79 82 85 92 91 83 83 82 80 77 73 72 71 70 67 66 66 65 64 63 62 62 63 60 58 57 57 56 57 57 58 62 63 64 62 60 58 59 60 57 60 62 61 63 65 61
57 65 66 72 72 64 69 63 40 33 30 27 31 28 31 35 35 37 36 36 36 38 40 46 55 58 66 64 60 75 77 73 73 73 83 81 79 92 88 77 79 85 89 90 85 81 83 83 80 79 79 80 81 86 91 84 75 76 75 73 73 74 74 72 68 67 68 69 70 69 66 64 63 61 59 58 58 59 59 59 59 60 62 63 63 61 61 59 58 58 58 62 67 66 66 69 68
58 63 63 72 66 57 67 51 28 30 27 24 29 30 35 35 35 37 38 41 41 41 41 45 48 59 73 66 66 69 65 68 68 73 81 76 77 89 85 74 79 86 88 87 83 80 81 80 79 77 77 78 81 82 80 78 77 76 75 74 74 76 81 80 73 69 72 74 73 70 66 65 65 64 62 61 60 59 59 58 59 60 60 61 61 61 58 56 55 55 56 59 63 67 69 70 71
55 59 61 67 63 56 53 36 27 30 25 23 26 29 30 30 34 35 38 42 44 45 44 46 48 66 75 67 75 70 62 68 69 76 76 73 79 86 82 73 77 83 85 85 82 84 82 78 77 75 76 78 77 75 72 74 76 77 82 84 82 84 84 82 75 71 76 76 70 67 66 65 65 65 64 62 60 58 57 56 56 57 57 58 57 55 51 49 49 49 52 55 59 64 67 68 66
57 57 53 51 47 44 38 30 28 24 21 21 22 26 25 26 32 35 40 43 44 46 47 48 50 70 77 71 78 69 66 74 75 80 77 79 82 82 81 75 76 80 82 82 82 84 81 77 77 75 76 77 73 72 71 70 71 76 87 87 84 87 83 76 73 73 74 72 68 66 65 64 63 63 62 59 56 55 55 54 54 54 53 52 49 47 46 46 46 50 52 53 56 60 63 64 62
57 52 45 45 46 44 37 34 29 21 20 20 20 22 23 27 32 35 41 44 46 50 53 53 56 69 74 75 80 72 74 79 81 85 81 81 80 81 83 80 80 78 78 79 81 82 78 75 76 77 77 77 73 71 71 68 68 71 77 76 75 82 79 72 72 73 71 70 69 66 66 68 67 60 56 54 52 52 52 51 50 49 49 47 46 46 46 46 47 51 54 54 56 57 58 60 61
47 41 41 47 53 52 40 34 28 24 24 23 24 23 26 29 34 39 43 47 47 55 58 57 65 70 73 79 80 75 77 80 83 86 82 80 80 82 83 81 81 75 74 75 77 78 77 75 75 77 78 77 74 71 70 69 68 68 68 67 70 75 72 68 70 70 69 68 65 64 66 69 64 55 51 51 50 49 49 49 48 47 47 48 47 47 47 47 48 51 54 57 59 60 61 63 63
35 37 48 47 46 49 42 36 29 26 25 25 27 25 29 31 38 44 45 48 47 53 53 54 63 66 79 86 79 75 76 78 80 84 86 86 87 88 80 75 74 72 75 76 75 77 78 78 78 79 77 76 75 73 73 72 69 68 66 64 66 68 67 67 67 67 67 63 60 59 60 58 53 49 49 48 47 48 48 48 48 49 49 50 51 50 49 48 50 54 58 60 60 64 67 69 70
31 38 54 45 39 44 41 38 32 30 27 25 26 23 26 31 38 42 43 46 46 51 50 50 54 60 80 83 74 73 74 76 78 82 88 90 92 93 81 71 71 71 75 78 79 80 81 82 82 81 76 73 74 75 76 75 71 67 66 65 64 64 65 65 64 64 62 58 55 54 52 50 48 47 47 47 47 48 48 49 50 52 54 55 55 54 52 52 55 59 60 60 61 65 69 72 73
29 37 52 45 40 40 35 38 35 33 29 22 23 21 23 28 33 35 40 47 47 49 48 45 46 61 78 81 80 75 72 75 77 82 85 88 91 91 82 74 73 73 75 79 84 84 81 82 82 80 77 75 77 79 78 77 71 67 65 64 64 63 62 62 61 58 56 54 51 49 49 48 47 47 47 47 48 49 49 50 51 54 57 59 61 60 58 58 60 61 58 56 57 60 64 68 69
24 36 53 48 40 36 32 35 32 31 28 22 21 21 22 25 29 34 40 47 48 43 41 42 44 60 73 80 85 73 69 73 74 81 83 86 89 89 84 76 75 75 77 80 86 86 78 78 80 79 77 77 82 82 81 78 70 66 65 63 62 61 60 60 59 55 54 52 49 48 48 47 47 47 48 48 48 48 49 51 53 58 66 71 70 67 63 61 61 59 55 52 55 58 59 60 58
22 30 45 44 38 36 33 30 30 31 27 22 22 21 25 26 26 33 36 39 45 39 40 44 41 51 62 69 73 66 68 71 73 79 81 84 86 88 88 84 81 80 82 83 84 82 74 74 76 76 76 78 82 82 81 75 68 68 64 62 62 61 61 60 58 56 55 54 53 52 49 48 48 47 47 47 48 49 54 56 56 61 71 79 78 74 69 63 60 56 55 56 59 59 58 56 54
21 27 36 38 34 33 30 29 32 31 26 24 24 22 27 28 25 29 32 35 42 41 41 43 39 44 53 57 60 63 69 71 72 76 80 83 84 86 88 93 94 91 93 88 81 77 73 73 75 74 76 80 81 82 82 73 73 75 65 61 64 66 65 63 60 57 57 59 59 57 52 49 46 46 47 48 52 57 61 62 62 64 70 77 77 77 70 61 59 60 62 64 65 63 61 61 59
21 29 34 34 31 29 26 28 30 27 26 25 24 24 27 29 28 29 34 39 41 41 40 40 40 42 48 53 56 63 68 69 70 74 79 81 84 88 90 96 100 101 103 91 82 82 77 73 75 73 71 76 78 81 83 76 81 84 71 65 65 66 67 65 62 60 62 64 64 60 54 51 49 49 49 52 59 63 64 64 68 70 70 73 72 72 67 62 64 66 66 65 66 66 66 64 60
22 29 34 32 27 24 23 24 25 24 26 24 23 25 26 28 28 28 35 41 39 42 43 43 47 48 51 54 55 61 64 65 69 73 76 78 82 87 92 97 100 102 102 91 85 88 80 69 70 71 68 73 77 79 80 78 84 87 80 74 68 65 68 66 64 62 64 68 68 62 55 52 53 54 54 58 62 64 63 63 68 68 66 65 63 65 65 62 63 63 62 63 65 65 64 61 56
22 25 29 28 22 21 22 23 23 23 23 24 25 24 25 27 26 26 34 41 41 44 48 50 53 55 57 56 56 59 60 63 68 71 74 77 79 83 90 97 99 97 94 89 90 93 80 65 64 67 69 75 79 79 77 76 82 83 75 71 68 66 66 65 63 60 59 65 67 63 57 52 55 62 63 64 67 66 65 66 66 62 60 57 54 58 58 57 58 58 59 59 60 61 60 59 55
18 20 22 21 19 22 22 21 23 23 23 24 25 25 27 25 25 30 39 49 51 48 47 50 53 58 61 59 58 58 60 62 66 70 72 75 76 79 86 92 94 93 95 92 93 96 77 63 67 70 72 76 79 79 76 74 76 76 70 64 63 62 61 59 59 56 56 60 63 63 58 52 58 69 70 68 70 70 68 67 66 60 56 54 54 55 55 56 58 58 58 56 56 59 60 61 57
15 16 17 18 20 23 21 20 23 23 23 25 27 28 28 27 30 36 44 56 55 47 44 44 48 57 60 58 57 58 59 61 64 67 70 72 74 77 82 88 91 94 99 90 86 92 76 66 73 74 75 76 78 80 75 71 71 69 66 62 58 58 57 57 58 57 60 64 65 65 61 58 64 72 72 71 72 72 69 65 63 60 56 56 57 57 58 60 61 63 63 60 58 62 64 64 65
15 16 17 20 20 20 20 21 23 23 24 27 28 29 29 30 34 37 42 50 47 41 41 42 47 54 56 57 58 59 58 59 61 64 66 68 72 76 77 83 91 92 95 86 80 86 78 74 78 78 81 82 81 83 77 71 71 67 63 62 58 58 58 60 62 62 66 69 71 70 66 67 69 73 74 72 73 71 67 64 61 60 57 57 57 56 60 63 66 69 68 64 63 65 67 69 75
14 16 18 19 19 19 19 21 23 23 26 28 28 29 30 33 34 36 40 44 42 40 40 42 46 49 52 56 59 60 60 59 59 61 62 64 69 74 74 80 87 86 91 94 86 80 81 86 83 78 80 83 81 81 79 74 74 73 70 69 63 62 68 70 69 70 72 70 71 74 72 73 72 74 76 72 70 69 66 66 64 61 57 56 56 55 58 63 70 72 67 64 63 63 63 68 75
13 16 18 18 18 19 20 22 24 26 28 29 31 34 35 35 36 40 44 44 42 41 42 44 46 46 49 55 58 61 63 60 58 59 60 62 66 70 71 77 82 82 85 93 91 78 81 91 84 75 74 79 81 78 79 78 79 81 77 73 66 64 72 77 76 79 80 75 73 74 73 74 74 77 78 72 69 68 67 67 67 65 62 59 58 57 59 65 72 69 63 62 62 61 61 64 70
13 14 16 16 19 20 22 24 26 28 29 30 35 39 39 36 41 47 46 44 43 43 44 45 46 47 50 52 55 60 62 59 57 58 58 60 64 67 68 73 80 81 76 81 87 77 76 87 82 75 75 82 85 80 79 80 81 82 76 71 67 67 73 78 81 82 84 84 79 76 74 72 74 76 75 72 68 65 65 66 69 71 70 67 65 63 62 65 69 64 61 61 61 61 61 64 70
11 13 15 17 20 21 23 25 27 28 29 32 37 41 39 35 44 54 48 43 44 45 46 46 46 48 49 50 53 57 57 54 54 55 57 59 64 66 66 70 76 78 77 77 79 73 73 80 77 74 77 81 83 80 78 78 77 76 73 70 69 73 79 82 84 81 81 87 85 78 75 72 73 76 74 72 66 64 65 66 69 72 72 71 69 69 67 69 72 66 62 60 59 62 63 68 77
11 13 15 17 20 21 23 26 27 30 32 33 34 39 39 38 47 53 47 43 44 46 47 46 46 49 49 50 54 57 55 52 51 53 57 61 65 65 64 66 70 73 79 80 77 75 76 78 79 81 82 81 81 79 75 75 73 71 71 75 76 76 79 83 85 81 78 83 82 75 74 73 73 75 73 71 67 66 67 68 69 69 69 69 69 69 71 74 76 72 65 61 63 67 68 71 77
11 13 18 20 21 23 24 25 27 29 33 31 32 42 45 44 48 48 44 43 43 45 47 46 46 49 51 51 53 55 54 51 51 53 57 60 61 63 62 61 65 71 76 78 77 79 81 80 80 83 83 82 84 82 76 75 73 71 73 80 83 79 79 81 85 89 83 76 72 69 72 73 71 72 72 72 70 70 71 70 68 65 65 66 66 68 70 73 73 72 68 65 70 73 70 70 72
12 13 19 22 23 25 23 23 25 28 32 27 33 52 54 48 47 44 42 43 44 47 47 46 47 50 51 52 52 54 56 53 50 52 56 59 59 61 63 60 61 68 72 75 75 76 78 78 76 75 75 76 79 78 75 74 72 71 72 75 79 79 80 78 79 88 84 72 68 68 72 73 72 73 74 73 73 73 73 71 67 66 67 68 70 72 72 71 68 67 66 67 72 72 68 69 71
14 14 17 20 23 25 21 22 25 27 30 25 34 55 56 49 48 43 41 42 45 49 48 46 49 51 52 53 52 54 58 54 48 51 55 59 59 59 63 62 61 65 70 73 73 73 74 75 74 73 73 72 72 71 72 73 70 70 69 69 73 77 81 77 74 78 77 76 76 73 73 74 75 76 73 72 72 73 73 71 70 71 73 75 76 76 76 74 70 67 68 69 67 66 66 68 72
15 16 19 19 22 23 20 22 25 27 29 25 36 55 53 48 48 43 41 42 45 49 49 48 52 52 52 54 52 54 59 53 49 51 54 59 60 59 61 63 64 65 68 71 71 72 72 72 72 71 72 72 69 67 68 70 69 69 68 68 73 79 84 80 77 76 74 80 81 74 74 75 75 73 71 71 72 73 73 72 75 77 78 80 80 79 79 77 74 71 70 70 68 67 67 67 71
15 19 23 20 21 24 23 23 23 25 28 27 35 50 50 45 45 43 40 42 45 49 50 50 54 54 54 55 52 56 61 57 55 55 55 60 61 59 59 62 65 65 66 68 70 71 70 69 69 70 70 70 69 66 66 69 70 69 69 68 70 78 83 81 80 80 76 79 77 71 72 73 71 70 72 72 71 73 75 76 80 82 82 83 85 82 76 72 71 70 69 74 78 75 73 72 73
18 22 23 18 20 23 24 24 22 24 27 29 34 44 47 42 43 43 40 42 45 49 50 51 56 57 56 56 55 60 63 60 61 60 59 61 61 60 59 60 64 64 65 68 68 67 67 68 69 70 70 69 69 68 68 70 71 71 71 70 68 70 75 76 80 82 79 77 74 70 69 68 69 71 75 74 71 74 77 81 85 86 85 85 86 80 71 69 70 71 71 76 81 79 76 75 76
21 23 22 19 20 22 24 23 23 24 26 32 38 43 45 41 42 42 39 41 44 48 49 51 56 58 59 58 58 64 64 60 62 62 61 61 62 62 60 61 64 64 66 68 65 63 64 67 68 70 70 70 71 72 71 70 71 72 72 73 73 73 75 77 78 77 76 77 76 72 68 68 70 73 76 76 75 76 79 85 89 89 89 87 85 80 75 75 75 76 76 78 81 81 79 75 75
20 20 21 20 20 22 22 21 21 23 28 35 39 43 44 43 42 41 39 40 43 46 48 51 55 57 59 59 59 64 64 62 62 62 61 62 62 62 62 64 64 64 65 65 63 62 63 65 67 70 71 71 72 75 74 71 71 74 73 74 74 73 74 74 72 71 74 80 81 80 76 74 75 75 77 76 75 76 79 85 89 92 93 91 89 86 83 84 84 80 79 83 86 85 84 79 78
17 18 19 19 20 21 20 19 19 21 30 36 37 40 44 43 43 40 38 39 41 44 47 51 55 56 58 59 60 62 63 62 62 62 62 62 63 63 64 65 64 65 66 62 60 60 61 63 66 70 71 74 75 75 74 73 74 74 74 72 68 67 69 68 68 70 78 83 81 82 81 75 73 73 73 71 72 76 77 78 81 84 86 88 88 85 88 93 89 78 77 85 89 90 90 85 84
15 18 19 19 19 19 18 18 19 19 28 35 37 41 43 42 42 39 37 39 40 42 45 50 53 55 56 59 61 61 63 64 63 66 67 65 66 67 68 69 68 67 65 60 58 58 59 61 65 69 73 79 78 72 71 73 74 71 67 64 63 63 64 65 69 73 79 84 84 86 84 75 69 69 69 72 77 79 77 77 79 79 80 86 89 88 93 95 88 81 83 87 88 93 95 89 88
13 15 17 21 20 19 18 18 18 18 25 35 38 41 43 41 39 38 37 38 39 39 42 47 51 54 56 59 62 62 66 69 68 71 73 68 68 72 73 74 71 67 63 60 58 59 59 61 67 69 73 79 77 72 71 70 69 67 64 64 65 64 64 68 72 74 73 76 82 86 85 79 72 69 70 73 75 74 75 77 79 81 82 84 86 89 93 91 86 84 87 91 91 95 97 86 80
11 12 15 20 20 19 21 20 18 18 24 34 38 40 42 41 39 39 36 35 38 38 40 43 47 51 54 58 60 62 67 71 71 73 75 71 72 77 78 77 74 70 68 65 63 64 63 65 69 71 71 72 72 73 71 66 65 67 67 68 67 66 69 72 69 70 69 71 77 77 76 78 73 69 68 69 70 71 73 74 74 78 78 75 77 82 84 84 84 86 88 95 96 97 98 85 76
12 11 13 16 17 17 20 20 18 21 27 31 37 46 47 44 43 43 38 35 37 38 41 45 48 48 51 56 58 60 66 70 71 73 75 75 76 78 79 78 76 75 73 71 67 67 69 68 68 70 69 66 70 72 67 64 67 70 71 71 72 73 76 75 70 68 67 68 70 64 64 72 71 66 65 66 70 71 72 73 73 74 73 73 76 76 78 79 80 83 86 90 95 96 95 85 73
12 11 11 13 14 15 18 18 19 32 40 34 36 52 58 50 46 43 39 39 39 39 42 47 51 51 52 57 59 59 64 67 69 71 73 76 77 77 78 79 79 78 75 70 66 67 69 65 65 69 67 63 66 67 64 66 70 71 71 73 74 76 77 78 72 63 58 57 58 57 60 67 66 64 65 65 67 69 71 72 72 73 73 74 75 73 74 75 73 76 79 83 88 85 78 72 65
12 14 12 10 11 15 18 18 22 37 44 34 29 48 62 53 45 43 40 41 41 41 43 46 51 53 54 57 58 59 64 67 69 70 70 73 77 77 78 79 79 79 75 70 67 66 66 64 65 68 64 61 62 62 64 68 69 68 70 72 72 71 74 74 66 57 54 54 57 58 60 61 63 65 66 65 68 71 71 71 71 72 72 72 73 73 73 73 72 74 73 76 81 76 69 71 74
13 14 12 10 10 15 18 17 22 29 34 34 29 42 59 53 44 42 41 43 44 43 44 46 49 52 53 56 57 58 62 66 69 72 72 72 75 77 78 77 76 75 74 72 70 67 65 66 67 66 62 61 61 60 62 64 65 67 68 66 64 64 66 63 55 54 57 58 58 59 58 59 62 63 62 64 69 70 68 69 70 70 71 72 72 72 72 73 73 74 72 71 74 76 78 83 86
11 10 9 11 9 13 17 18 21 25 34 42 37 39 57 66 59 48 44 45 44 46 46 45 49 50 51 55 56 57 61 64 66 71 73 72 73 75 76 75 74 73 74 73 70 67 68 68 67 67 65 64 62 59 60 62 66 68 63 55 52 53 54 51 49 52 56 56 55 55 56 59 62 62 62 64 67 68 68 70 70 68 68 70 72 69 68 69 67 67 68 68 67 72 80 84 84
8 7 9 9 10 14 16 19 22 25 37 46 39 35 49 69 70 55 52 51 43 43 44 43 48 49 49 52 54 56 60 63 64 68 71 71 71 72 73 74 74 74 74 72 72 72 72 70 68 68 67 65 62 59 61 66 67 63 55 48 47 48 47 48 48 48 50 51 52 52 55 61 64 63 63 63 64 67 71 72 67 62 63 66 69 67 64 64 62 58 61 65 67 70 76 79 79
7 8 8 8 19 26 26 37 36 27 37 44 35 31 35 53 64 56 51 48 38 38 42 43 46 48 48 49 51 56 61 64 64 66 70 70 70 70 71 74 75 75 75 74 76 77 74 72 69 68 68 63 61 63 66 66 61 54 49 47 48 47 46 48 48 47 48 48 50 53 59 67 66 63 61 59 63 68 71 69 62 58 62 66 68 66 62 63 65 64 66 66 65 68 74 77 79
7 10 10 9 26 32 28 38 35 23 34 39 30 29 30 39 54 52 44 38 34 35 39 43 45 47 48 46 47 53 60 63 64 66 70 71 71 71 71 74 76 76 78 78 78 79 76 73 72 70 68 63 64 67 65 58 53 49 48 48 47 47 48 48 46 46 47 48 52 58 65 69 64 60 59 59 67 72 68 63 59 60 66 68 68 67 65 65 67 68 70 69 66 67 72 75 77
7 12 16 16 24 24 20 31 32 29 37 34 24 27 32 35 37 39 39 37 35 33 34 38 42 44 45 44 45 52 58 61 63 67 71 72 72 72 72 74 76 77 79 79 78 80 79 75 74 71 68 67 68 67 59 52 52 49 48 47 46 48 51 50 48 48 51 54 59 64 66 65 60 58 59 63 70 70 64 60 60 63 65 65 67 67 66 66 66 66 66 67 67 66 68 69 72
9 14 18 22 27 22 23 35 34 30 33 28 20 23 32 32 28 32 36 34 33 32 32 34 38 41 43 41 42 50 58 59 61 66 69 72 72 71 72 74 76 77 78 77 76 79 79 77 76 73 70 69 65 60 55 53 53 49 46 48 48 49 51 50 48 49 53 58 61 63 63 61 60 59 61 65 69 65 60 60 62 64 63 62 64 64 63 64 65 66 66 66 66 65 66 68 70
10 14 17 23 33 29 27 34 29 24 26 21 17 23 29 26 27 35 33 29 32 32 32 33 36 39 39 39 40 49 58 58 60 65 67 70 71 70 72 73 74 76 76 75 75 78 79 77 77 74 71 67 61 58 56 55 54 49 48 51 50 50 50 48 47 47 51 57 60 61 62 61 59 59 60 64 65 61 57 60 63 63 61 60 62 62 62 63 64 64 64 65 66 65 64 65 67
9 13 15 18 27 28 27 33 35 31 28 25 25 34 38 31 34 43 37 33 37 35 34 36 38 40 39 39 41 48 58 59 59 64 66 69 70 70 71 71 73 75 74 74 75 77 79 77 75 72 69 65 60 59 57 55 53 50 51 53 51 51 50 48 48 49 50 57 61 61 61 60 58 58 59 59 59 56 55 61 65 62 60 62 63 63 63 62 62 62 62 63 65 65 64 64 66
12 11 15 15 16 18 21 29 33 29 26 32 32 30 32 31 36 46 42 41 43 38 37 38 38 42 42 42 43 46 55 59 60 63 65 69 70 70 71 69 71 73 73 73 73 75 76 75 74 71 67 64 61 59 56 54 53 51 53 53 49 50 50 47 49 51 52 55 58 59 59 60 58 57 59 59 58 58 58 61 63 60 62 64 64 65 65 63 62 61 61 62 64 65 65 64 66
13 9 12 14 12 17 29 32 29 27 29 36 34 23 25 30 38 48 46 45 46 41 39 38 40 44 43 43 45 45 51 56 58 61 65 69 71 70 70 69 68 70 71 70 71 73 73 72 71 69 66 64 61 59 55 53 53 54 54 51 49 51 50 48 49 50 53 54 53 55 57 58 57 56 61 63 61 60 60 60 60 61 63 65 64 64 63 63 63 62 62 62 64 66 67 68 70
9 8 10 14 13 17 29 29 27 31 31 32 33 29 31 34 40 48 47 46 48 44 41 41 41 44 43 43 47 47 50 54 57 61 66 70 71 70 69 68 67 68 69 69 70 72 73 71 69 67 65 63 60 58 55 53 54 56 55 51 50 51 49 49 50 49 52 55 55 57 58 57 57 60 65 67 64 62 62 63 64 65 65 64 64 63 62 62 62 61 61 60 60 64 68 72 74
8 9 9 13 17 16 19 23 28 32 34 38 38 35 41 46 43 44 45 46 46 44 44 42 40 42 41 42 47 50 51 54 55 59 65 69 70 69 68 66 66 67 67 69 70 72 73 71 70 67 65 63 61 58 56 56 56 56 55 52 51 51 50 51 53 52 55 59 61 62 59 57 59 62 67 69 67 66 66 65 65 64 64 65 65 64 61 60 59 58 59 58 57 60 64 65 67
9 12 11 11 15 15 15 22 27 27 36 48 39 31 51 62 47 40 41 41 42 42 42 42 41 41 40 40 44 49 51 54 54 56 63 67 67 67 66 64 65 66 67 68 70 72 72 70 70 68 66 64 61 58 57 57 56 57 56 54 54 53 51 54 56 57 58 61 62 61 57 56 59 62 66 67 65 66 66 63 61 60 60 62 63 61 57 54 54 55 56 55 57 62 66 65 64
10 12 13 12 15 16 15 21 27 25 32 44 35 30 51 56 41 38 40 37 37 38 39 41 40 39 40 39 42 47 50 53 53 52 58 64 65 65 65 63 63 65 66 68 70 72 71 70 70 68 66 65 61 60 59 58 58 59 57 56 56 54 53 55 57 58 61 61 61 59 54 55 59 62 63 62 62 64 62 59 58 60 61 60 58 57 54 51 51 53 54 55 60 67 69 67 67
Wind_Speed
11 11 8 5 5 5 4 3 2 2 2 3 2 2 3 5 9 10 10 8 6 4 4 6 7 9 8 7 10 9 11 5 2 3 2 7 15 16 14 14 16 19 20 20 20 20 23 25 25 27 28 28 29 31 32 31 28 27 28 28 29 30 30 28 26 24 24 23 22 21 20 18 18 17 17 18 18 17 16 16 15 14 13 13 12 11 10 11 11 10 10 9 9 9 8 7 4
12 12 8 6 4 4 1 1 3 2 3 4 3 3 2 4 9 11 10 9 6 6 9 11 12 13 12 10 8 12 12 10 7 6 5 16 19 15 15 15 17 21 22 23 23 22 24 25 26 28 30 28 28 30 30 31 30 28 28 28 28 28 27 26 24 23 23 22 21 19 18 17 17 16 16 16 16 15 15 15 14 13 13 12 11 11 11 10 10 9 9 9 8 7 7 6 4
15 14 12 10 3 4 1 2 2 1 4 5 3 3 4 6 9 13 14 13 11 11 11 11 10 8 11 11 9 10 6 8 11 7 7 18 16 13 17 15 17 21 23 24 24 25 25 24 26 28 29 29 28 27 28 29 29 28 29 28 28 27 26 25 24 23 22 21 20 19 18 18 17 17 16 16 15 14 14 14 13 13 13 12 11 11 10 9 8 8 9 8 7 6 5 5 4
15 13 14 10 3 3 1 3 2 2 5 3 4 4 5 8 11 14 16 15 13 12 11 8 6 4 11 15 6 7 7 5 8 7 7 14 17 19 20 18 19 21 24 24 22 25 25 24 26 27 27 28 26 25 26 27 27 28 29 28 28 27 25 24 23 23 22 21 20 19 19 18 17 17 16 16 15 14 14 14 13 13 13 12 11 10 9 8 8 7 7 7 6 5 4 4 3
14 12 13 6 1 1 2 1 2 3 4 3 3 4 6 9 12 13 13 14 12 12 11 8 6 6 11 11 3 4 7 7 9 9 9 15 22 24 22 21 22 23 24 22 21 24 25 24 25 25 25 25 25 24 24 26 26 26 27 27 27 26 25 24 24 24 23 22 21 20 19 18 17 16 16 15 15 14 14 14 14 14 13 13 11 10 9 7 7 6 6 6 5 3 1 1 1
16 11 9 4 3 0 1 1 2 5 4 4 4 5 9 11 13 15 14 14 13 13 11 9 9 10 9 6 5 5 8 10 11 11 14 20 24 25 23 24 24 24 24 23 22 23 24 23 23 24 23 23 23 23 23 24 25 25 25 26 26 25 25 25 24 24 24 23 21 20 19 18 17 16 16 15 15 15 14 14 14 14 13 12 11 9 8 7 6 4 4 5 4 2 1 0 1
19 10 4 3 4 1 2 1 3 5 5 7 7 8 12 12 13 15 15 14 13 12 11 10 11 12 8 5 7 8 10 11 12 15 21 24 25 25 24 25 26 25 24 24 24 24 24 22 23 23 23 22 21 21 22 23 24 24 24 25 25 25 25 25 24 24 24 22 21 20 19 18 17 16 16 16 16 15 15 15 14 14 12 11 10 9 7 6 5 4 4 3 3 3 1 1 2
17 6 2 3 1 1 2 2 3 4 4 8 10 12 13 12 12 12 13 11 9 9 11 11 11 12 8 6 6 9 14 13 16 21 27 27 26 26 25 27 27 26 25 24 25 25 24 23 23 23 22 21 21 21 22 23 23 24 24 25 25 24 25 24 24 23 23 22 21 20 19 18 17 16 16 16 16 16 15 15 14 13 12 11 10 8 7 5 5 5 4 3 3 3 3 3 3
11 2 0 3 1 2 3 2 4 4 5 7 9 11 12 12 12 12 13 10 10 10 12 9 8 12 9 9 8 9 14 17 23 26 29 28 27 26 25 27 27 26 24 23 25 25 24 23 23 23 22 22 22 22 22 22 23 23 23 23 24 24 24 24 24 23 23 22 20 20 19 18 18 17 17 16 16 15 15 14 13 12 11 10 9 8 6 5 5 5 4 4 3 3 4 5 4
6 4 2 2 2 4 4 1 2 4 6 7 8 11 11 11 12 13 13 12 12 11 13 9 8 14 13 10 7 8 15 22 25 25 29 28 26 26 24 25 26 26 24 23 23 24 24 23 23 23 22 22 22 22 21 22 21 21 22 22 23 23 23 23 24 23 22 21 20 19 19 18 18 17 17 16 16 15 15 14 13 12 11 9 8 7 6 5 4 4 4 3 3 3 4 5 5
1 3 2 3 3 4 3 2 4 5 8 9 10 12 12 13 13 13 14 13 14 14 13 9 10 14 13 8 4 11 21 24 24 24 27 27 26 26 24 24 25 25 24 23 23 23 23 22 21 21 21 20 21 21 21 20 20 20 21 22 22 22 21 22 22 22 22 21 20 19 19 18 17 17 17 16 16 15 15 14 12 11 9 7 6 5 5 4 4 4 4 4 4 5 5 6 6
1 1 3 4 3 3 3 4 5 7 9 10 10 10 12 15 15 14 16 14 14 15 10 7 9 10 10 6 4 14 23 22 24 26 26 26 26 24 23 25 26 25 24 23 22 22 21 21 20 20 20 19 20 20 20 20 20 20 20 21 22 21 20 21 21 21 21 20 19 19 18 18 17 18 18 17 17 16 15 13 10 8 6 5 5 4 4 4 4 4 5 6 6 6 6 6 7
2 2 4 3 1 3 4 4 4 5 6 7 9 10 12 14 15 15 15 15 14 12 10 10 10 8 8 6 6 13 18 20 24 26 26 25 25 23 23 25 25 25 24 23 22 21 21 21 20 19 19 19 20 20 19 19 19 19 20 21 21 21 20 21 21 21 20 19 19 18 18 18 18 18 18 17 16 14 12 10 8 6 5 4 5 5 5 5 5 5 6 7 7 7 7 8 8
4 2 4 2 1 2 3 4 4 4 4 6 8 10 11 11 14 14 14 15 11 11 13 14 13 9 8 8 7 8 14 22 24 25 26 25 24 23 24 24 23 24 23 23 21 20 21 21 21 20 19 19 19 18 18 18 19 20 20 21 22 21 21 20 20 20 19 19 18 18 18 18 18 17 16 15 14 12 10 8 6 4 4 3 4 4 5 6 6 6 7 8 8 8 9 9 9
5 2 4 3 1 1 1 3 5 6 5 6 8 9 10 10 14 13 13 14 10 12 14 13 11 8 8 9 8 9 17 26 25 26 27 25 25 23 24 24 22 22 22 21 21 20 21 21 21 21 20 20 19 18 17 18 18 19 20 21 21 21 21 20 20 19 19 18 18 18 18 17 16 15 14 13 12 11 9 7 5 4 4 4 5 5 6 7 7 7 8 8 9 10 10 10 10
3 3 4 3 2 1 1 3 5 6 5 6 11 13 13 11 12 11 11 12 11 12 11 10 7 7 11 9 11 18 24 28 26 27 27 25 25 23 23 23 22 22 21 20 21 21 21 22 22 22 22 21 21 19 19 19 18 18 19 20 20 20 20 20 20 19 19 18 18 17 17 16 15 13 11 10 10 9 7 7 6 5 4 5 5 6 7 8 8 8 8 9 9 10 10 11 10
3 3 4 2 4 3 2 4 4 5 6 9 14 14 14 10 8 9 11 14 14 12 9 8 6 9 14 12 19 27 28 28 27 27 26 24 23 22 22 22 23 23 21 20 20 20 20 21 22 22 22 21 21 20 20 19 18 18 18 19 20 21 20 20 19 19 18 17 17 16 15 14 13 11 10 9 9 7 7 7 6 4 3 5 7 7 8 8 7 7 7 8 8 8 9 9 9
3 3 3 2 4 5 4 6 6 6 8 11 13 14 15 11 8 9 11 13 13 11 8 9 9 11 17 21 28 30 29 29 27 26 23 21 21 20 20 22 23 23 22 22 21 20 20 21 21 20 21 21 20 19 19 18 18 18 17 18 18 20 20 19 18 18 17 16 16 15 14 12 10 9 9 8 7 7 7 7 6 5 4 6 8 7 6 5 4 4 5 6 6 5 6 7 7
4 4 4 4 5 5 5 7 7 8 11 12 13 14 15 14 12 10 10 13 14 12 9 10 12 14 19 25 29 29 29 28 26 26 22 21 21 20 19 21 23 24 25 25 24 22 22 22 20 19 20 21 19 18 18 17 18 18 18 17 17 17 18 17 17 16 16 16 15 14 12 11 9 8 8 7 6 6 7 6 6 5 5 6 6 4 3 3 2 3 4 5 4 4 5 6 7
3 4 4 7 7 5 5 7 8 9 12 12 11 11 14 14 12 9 12 15 15 14 12 12 15 17 18 19 24 27 26 26 25 24 23 21 21 20 20 21 23 26 28 27 26 24 23 22 21 20 20 20 18 18 18 18 19 18 18 17 15 16 16 15 15 14 14 14 14 13 11 10 9 8 7 7 6 6 6 6 5 4 5 6 5 4 3 3 2 3 5 5 5 5 5 6 8
3 5 5 7 9 7 7 9 8 9 11 12 10 10 12 12 9 11 16 14 10 13 16 18 19 19 20 18 20 24 23 23 23 22 21 20 19 19 21 23 24 26 27 27 27 24 22 21 20 20 20 21 19 19 19 19 19 18 17 16 15 15 14 14 13 13 12 12 13 12 11 11 10 9 8 8 6 6 6 5 5 5 6 7 6 5 4 3 2 4 6 6 6 6 7 8 9
3 5 8 10 11 10 11 12 12 11 11 11 10 9 8 8 9 15 19 14 9 11 16 20 21 20 22 21 20 21 20 20 20 21 20 19 19 18 21 23 22 24 25 25 27 25 22 21 20 20 22 22 20 21 19 19 19 17 17 16 15 14 13 13 12 12 11 10 11 11 12 12 11 10 10 9 8 7 6 5 6 6 7 7 7 6 5 3 3 4 6 6 5 6 7 8 9
3 6 12 13 12 11 11 12 14 12 12 10 8 6 7 10 10 12 16 14 12 13 16 18 19 22 24 22 20 18 17 17 19 22 21 20 20 20 22 22 21 24 26 26 26 25 23 22 21 21 23 22 20 21 19 19 19 17 17 15 13 14 13 12 12 11 10 9 9 11 12 12 11 11 11 10 9 8 6 7 8 7 7 6 7 7 5 3 3 4 4 4 5 6 8 8 7
3 8 14 14 11 11 10 11 13 13 13 10 8 8 8 10 8 7 11 13 14 15 16 17 19 23 24 19 17 17 17 17 19 23 23 23 23 23 22 23 26 28 28 27 27 26 24 22 23 23 23 22 20 22 21 20 21 19 18 15 13 13 14 14 13 12 12 10 10 11 12 13 12 12 12 10 9 9 8 9 9 8 6 4 4 5 5 3 2 3 4 4 5 7 9 9 8
5 11 13 11 8 10 12 13 15 14 11 10 10 10 7 7 7 9 14 16 16 17 16 17 18 19 18 17 17 16 16 18 20 22 22 22 24 23 21 24 27 28 29 29 28 27 25 23 23 23 24 23 21 23 23 21 23 21 19 16 14 14 15 16 16 15 15 13 12 14 14 14 14 14 13 11 9 10 10 10 10 9 6 4 4 5 6 5 4 4 4 5 7 9 10 10 10
7 13 12 12 12 14 16 15 16 14 9 10 13 10 8 9 10 9 13 18 17 17 17 17 17 15 14 15 16 14 14 17 19 20 21 22 25 23 22 26 27 27 28 29 29 28 26 25 24 24 25 24 22 22 22 21 21 21 19 17 16 17 17 16 17 18 17 16 14 17 18 17 16 15 14 12 11 11 11 11 11 9 8 6 6 6 7 8 7 5 6 6 9 11 12 11 12
7 13 13 14 17 15 16 16 15 12 9 13 14 10 8 7 8 7 10 17 18 17 17 16 16 15 14 14 13 13 14 17 20 21 20 21 24 24 23 26 28 28 28 28 29 27 26 27 25 24 24 23 22 19 18 18 18 19 19 18 18 17 15 14 16 17 16 16 15 17 19 19 18 15 14 13 11 11 11 12 11 11 11 9 8 7 8 9 8 6 7 7 9 11 12 12 12
11 15 13 12 16 14 18 18 14 12 8 12 15 10 7 7 8 10 12 16 18 19 17 15 14 12 13 14 13 10 13 18 21 21 19 19 23 25 25 26 28 29 28 28 28 26 26 27 25 24 22 20 21 19 16 16 15 16 17 19 19 15 11 12 15 16 14 14 15 17 19 20 19 16 15 14 11 11 12 12 12 12 12 11 10 10 9 9 9 8 8 8 10 11 12 12 13
11 16 15 12 13 12 16 17 15 13 9 12 16 9 6 6 9 13 15 15 16 19 17 15 13 11 11 13 11 9 13 18 20 19 20 23 25 26 27 27 28 28 28 28 28 28 28 28 26 25 22 19 20 18 15 15 14 12 13 16 18 14 12 15 16 14 13 15 16 17 19 20 19 16 15 14 12 12 12 13 13 13 12 12 11 11 10 10 10 11 10 10 11 11 12 12 12
9 13 14 11 10 7 9 12 14 14 13 16 13 5 2 4 11 14 14 16 16 16 15 14 12 11 11 11 10 8 11 15 17 19 22 27 28 27 28 28 28 27 27 28 29 29 29 29 27 26 25 23 22 20 17 16 14 13 13 13 15 14 12 14 15 13 13 16 17 18 20 20 19 16 14 13 12 12 13 13 13 12 11 11 11 11 10 10 11 11 11 12 12 10 10 8 8
8 10 9 7 7 5 7 9 15 13 11 14 10 4 6 6 11 14 13 15 16 15 14 13 11 11 11 10 11 8 10 15 19 22 24 28 29 28 29 29 28 27 27 28 28 28 27 27 26 25 25 24 23 23 20 19 16 15 14 13 12 13 13 13 13 14 14 15 16 18 19 18 17 15 13 13 13 12 12 12 12 10 10 10 10 10 10 10 10 11 11 11 10 9 8 7 7
4 7 5 4 6 7 6 8 15 16 10 9 8 5 6 7 11 13 13 14 14 14 13 12 11 12 12 10 11 9 9 16 21 24 26 28 29 28 29 29 29 29 27 27 26 25 25 24 24 24 25 23 22 22 21 19 16 14 12 11 11 11 12 12 11 13 13 13 15 17 17 16 15 14 13 13 12 11 11 11 10 10 10 10 10 10 10 9 10 10 9 8 8 8 9 8 8
0 4 5 5 8 7 5 7 11 19 14 6 6 7 6 7 11 12 13 14 13 12 11 12 12 12 12 9 10 9 8 12 15 21 25 27 28 29 29 28 28 29 26 26 26 24 24 23 24 24 23 22 20 19 18 16 14 12 11 11 10 10 11 11 10 12 12 12 15 15 14 14 14 14 14 12 10 11 10 10 9 9 9 10 10 9 7 7 8 8 7 7 7 8 8 9 10
2 2 3 6 10 10 8 7 8 17 17 9 7 10 8 10 14 14 14 15 14 12 12 12 11 11 10 10 9 8 9 10 10 16 24 26 28 29 29 28 27 27 26 27 26 24 23 23 24 23 21 19 18 16 15 15 12 11 12 11 11 11 11 11 11 12 12 13 15 14 14 15 15 14 13 11 10 10 9 8 8 8 9 9 9 8 7 6 6 7 9 8 8 8 8 9 10
5 4 4 4 9 11 12 11 10 14 15 11 9 9 10 13 15 15 15 16 15 13 13 12 12 12 11 10 10 8 10 10 10 17 25 27 29 29 28 27 26 25 26 27 25 23 23 23 22 22 20 18 17 15 14 14 13 12 12 12 12 12 12 12 12 11 11 12 13 13 13 14 14 13 12 9 7 6 5 6 6 7 8 8 8 9 8 7 7 7 9 9 9 10 9 9 10
8 8 7 6 8 9 10 12 13 16 13 10 12 11 12 15 16 16 15 16 15 14 12 11 11 12 11 10 9 8 10 9 11 19 26 27 30 30 29 28 27 26 27 27 24 23 23 22 22 22 21 19 17 16 16 16 15 14 14 13 13 13 13 13 13 12 13 12 10 10 11 12 12 11 8 5 3 1 1 2 3 5 7 9 10 11 10 9 8 9 10 10 11 11 12 11 8
8 7 8 9 9 8 9 11 13 15 11 9 13 14 16 18 17 17 17 15 15 14 13 12 12 11 11 10 10 10 9 8 12 20 25 27 29 29 29 28 28 28 28 28 25 24 23 22 23 22 21 19 18 18 19 19 18 17 16 16 15 15 14 14 14 14 14 11 9 10 10 9 8 6 5 4 3 2 2 1 3 4 6 8 11 12 12 11 10 10 11 12 12 12 13 12 9
8 6 6 8 9 9 10 12 13 12 9 7 11 14 15 17 17 16 16 17 16 16 16 14 14 13 11 11 12 11 8 7 11 16 20 25 27 27 28 28 29 30 30 29 26 25 24 23 24 23 21 21 20 19 19 20 20 18 17 16 14 14 13 12 12 12 11 8 9 10 9 7 5 5 4 3 2 2 1 1 3 4 6 8 10 11 14 14 11 11 11 12 13 13 14 13 11
7 5 3 6 6 5 6 9 13 11 7 6 11 13 12 14 16 16 17 17 15 17 18 17 17 15 12 12 12 10 9 9 11 12 16 22 26 27 28 28 30 31 30 29 27 26 26 25 25 23 22 22 21 20 19 19 19 17 16 14 12 12 10 8 8 6 4 4 6 8 8 5 3 4 4 3 2 2 3 3 2 2 4 6 5 7 11 11 10 11 12 14 13 13 13 13 12
5 6 4 5 3 4 4 7 13 8 5 10 12 8 8 10 11 13 16 16 13 15 18 17 17 17 16 16 14 12 13 13 13 12 14 19 24 25 26 28 29 30 30 29 28 28 27 27 26 25 24 23 22 21 20 19 18 17 16 15 12 11 8 6 5 4 2 3 4 4 4 4 4 5 4 4 4 3 3 2 1 1 2 3 3 3 5 7 8 10 10 11 12 12 12 12 13
5 7 7 4 4 8 7 6 11 4 3 11 11 4 3 7 8 10 10 10 11 13 14 14 15 16 16 16 15 15 15 15 14 14 14 16 20 23 25 27 28 28 29 30 29 29 29 28 26 25 24 24 23 23 21 20 20 19 18 15 12 10 9 7 6 4 3 4 6 7 6 7 8 6 5 5 5 3 2 2 1 1 1 1 2 3 3 5 6 6 6 6 6 7 8 8 10
5 7 9 8 8 10 7 8 10 5 2 9 12 6 4 5 8 10 8 8 10 11 13 14 13 12 13 14 15 15 15 15 15 15 14 15 19 23 25 26 27 27 29 30 31 30 29 28 26 25 25 25 25 24 22 21 21 19 17 16 13 12 10 9 8 7 9 10 11 11 10 10 8 7 5 5 5 4 3 2 2 2 2 2 2 2 3 4 6 6 5 5 3 2 3 6 8
6 6 10 11 10 10 11 13 10 5 4 11 12 7 3 4 8 11 8 9 12 12 13 14 13 12 13 13 14 14 14 15 15 15 15 16 19 21 22 25 27 28 29 30 31 30 29 28 27 26 27 27 25 24 23 22 20 17 14 14 14 14 13 10 10 11 13 13 13 12 11 9 7 5 5 4 4 4 3 1 1 2 2 3 3 3 3 3 4 5 5 3 3 3 5 6 8
6 7 8 9 9 11 14 15 11 5 5 7 7 3 5 5 9 9 8 9 11 12 13 14 14 14 15 15 15 16 16 16 15 15 15 16 20 23 24 26 29 30 30 30 30 30 30 29 28 28 28 27 25 23 22 21 19 16 13 12 12 13 14 14 13 13 13 12 11 10 7 6 4 3 2 3 3 2 1 0 1 1 2 3 3 2 2 3 3 4 5 4 3 4 6 7 8
9 8 7 8 8 10 15 15 10 5 6 7 7 2 5 4 5 4 7 9 11 13 16 17 16 17 16 16 17 17 18 18 17 17 17 17 21 26 28 28 29 30 31 31 31 31 31 30 30 29 29 28 26 23 21 19 18 16 15 15 14 15 15 15 13 11 11 10 8 5 4 4 3 1 1 1 2 1 0 0 1 3 3 3 3 3 3 2 2 3 4 5 5 6 7 8 8
9 7 6 5 4 6 11 11 7 6 6 9 11 6 4 3 4 5 6 8 12 13 15 16 16 17 17 16 18 18 16 16 17 18 18 21 26 29 30 30 29 30 31 32 32 32 32 31 31 31 30 29 27 24 23 20 18 18 18 17 16 15 14 13 11 10 9 9 7 6 5 5 4 2 0 1 2 1 1 1 2 4 4 4 4 5 3 2 2 3 3 4 4 6 7 7 8
7 3 5 3 3 4 3 2 4 6 4 8 12 11 6 3 5 6 8 12 17 15 12 13 15 17 18 17 16 17 15 14 15 15 17 22 28 29 29 29 29 29 30 32 32 31 32 31 31 31 30 28 26 24 23 21 20 20 19 17 15 15 14 13 11 9 8 8 7 6 7 7 5 3 2 2 2 2 2 2 4 5 4 4 5 5 4 4 4 3 3 4 5 6 6 6 6
6 1 3 4 3 4 3 5 3 4 4 6 11 12 8 4 5 7 13 18 19 17 16 17 19 19 18 16 15 15 15 14 14 14 14 17 20 23 27 28 29 29 30 31 32 32 31 31 31 31 29 28 26 25 24 23 22 19 17 15 14 14 15 14 12 10 10 10 9 9 9 9 6 5 4 3 4 4 4 4 5 4 3 4 4 4 5 5 6 5 5 6 6 7 7 6 6
6 2 4 3 3 2 1 2 1 4 5 5 10 12 8 6 7 10 17 20 17 16 17 20 22 21 19 16 15 14 14 15 15 13 13 14 14 19 24 27 29 29 30 32 32 32 31 32 32 31 30 28 27 27 26 24 22 19 17 16 15 15 15 14 14 12 11 11 11 12 11 9 7 7 6 5 5 5 4 5 4 3 4 4 4 5 6 6 7 7 7 8 8 8 8 8 7
6 5 5 5 3 2 2 3 2 2 5 6 8 10 5 5 7 11 18 23 21 18 15 17 20 21 20 18 16 14 14 15 14 13 14 13 14 19 24 27 29 30 32 34 34 33 32 32 32 32 31 30 29 29 27 24 22 19 18 17 16 16 16 15 14 13 11 11 12 12 11 9 8 8 7 6 5 5 5 5 4 4 5 5 5 6 6 7 8 8 9 9 9 9 8 8 7
5 6 6 5 5 5 3 3 3 4 5 5 4 5 5 5 6 9 16 19 17 14 12 13 16 16 17 16 14 14 14 14 12 13 15 15 17 23 25 28 30 32 35 36 35 34 33 33 35 35 34 33 32 30 28 25 23 20 19 19 18 18 17 15 13 12 11 11 11 11 11 10 9 9 8 7 6 7 7 6 6 6 6 6 6 6 7 7 8 9 10 10 10 9 9 9 8
5 4 7 4 6 6 3 4 6 5 3 4 3 3 5 6 4 3 5 6 6 11 11 11 11 11 12 13 13 13 13 13 12 13 14 15 20 25 27 29 31 32 35 36 36 36 36 36 37 37 37 36 35 32 30 27 24 22 21 21 20 19 18 15 13 13 12 12 11 11 11 10 9 9 9 9 9 8 7 7 8 7 7 7 7 7 8 8 9 10 11 12 12 11 10 10 9
4 4 5 5 6 8 3 4 3 3 2 4 2 2 4 2 4 6 4 7 9 12 12 12 12 12 13 13 12 13 13 13 13 14 15 16 19 24 27 30 31 32 35 37 39 41 41 41 40 39 39 38 37 35 33 30 26 25 25 23 22 21 19 16 15 14 13 12 11 11 10 10 10 10 9 9 8 8 8 8 8 9 8 8 8 8 9 9 10 11 12 13 13 12 12 12 11
5 6 7 3 2 4 4 2 2 4 1 4 2 3 3 1 3 5 2 7 10 13 14 13 12 12 13 13 13 14 15 15 15 15 15 15 18 23 27 31 34 37 39 41 43 44 44 44 44 43 41 41 40 38 35 32 29 28 28 26 24 22 20 17 16 15 14 13 12 11 11 10 10 10 9 9 8 9 9 9 9 10 9 9 9 9 10 10 11 12 14 14 14 13 13 13 13
6 6 6 5 4 2 1 3 2 1 2 3 4 4 3 4 5 4 5 9 10 12 12 13 13 13 14 13 13 14 14 13 13 13 12 13 17 23 28 31 34 37 40 42 43 42 42 43 44 45 45 44 42 39 37 34 32 31 30 28 26 23 20 18 16 15 15 15 13 13 12 10 10 10 10 10 10 10 10 10 10 10 10 10 10 10 10 10 11 13 15 15 15 14 14 14 13
2 3 4 3 4 6 3 3 5 4 3 3 4 5 3 5 6 7 11 10 10 11 11 13 15 15 14 12 12 13 13 13 13 13 14 14 18 25 31 34 36 38 39 39 40 40 40 41 43 44 44 42 40 38 37 35 34 33 32 30 27 24 21 19 17 15 16 16 15 15 13 11 11 11 11 12 11 11 11 11 11 11 11 10 10 10 10 10 11 13 14 15 16 15 15 16 15
3 4 5 3 0 3 3 2 2 4 4 4 3 3 5 5 4 8 12 11 12 15 15 13 13 13 14 13 14 14 13 14 14 14 15 16 19 27 33 35 36 36 35 35 36 38 39 39 40 41 40 40 40 39 37 36 35 34 33 31 28 25 22 20 18 16 17 17 16 15 12 12 13 13 13 13 13 14 13 13 12 11 10 10 11 11 11 11 11 12 13 14 16 16 16 16 16
7 6 6 5 3 4 4 3 2 2 5 5 4 4 7 6 4 8 11 11 12 14 14 12 11 14 14 13 14 14 14 15 16 17 17 17 19 25 31 32 31 31 32 34 35 36 37 38 39 39 39 40 41 39 38 37 35 34 33 31 29 26 23 21 19 18 18 17 16 14 13 13 15 15 15 15 15 15 14 13 11 10 10 10 12 13 12 12 12 13 14 15 17 17 16 15 15
Wind_Direction
180 184 190 174 113 86 50 42 64 15 71 94 58 54 76 96 105 111 105 97 83 76 84 80 80 87 94 113 125 81 40 24 91 113 111 123 129 141 144 136 133 123 121 118 116 115 116 120 122 124 125 123 121 120 122 121 120 123 124 126 127 127 130 129 132 133 133 132 130 130 127 125 123 122 122 120 118 117 115 114 114 113 113 111 105 103 101 101 101 103 102 99 94 92 86 73 61
185 185 175 161 116 61 341 52 75 20 59 90 89 87 98 101 101 102 98 91 93 102 89 88 89 89 103 114 105 76 41 16 67 83 95 125 126 140 144 137 135 125 122 121 121 122 121 123 124 124 123 121 120 121 122 121 119 122 123 126 128 129 130 130 133 133 132 132 131 131 128 126 125 125 126 124 122 120 119 119 118 117 114 110 108 108 106 105 106 107 104 101 98 100 103 94 72
184 184 163 151 107 32 333 36 68 56 71 92 96 93 103 97 96 101 107 105 106 109 97 95 88 91 103 84 55 73 68 28 69 80 104 132 132 142 144 139 136 126 123 122 123 127 124 125 126 124 122 120 119 120 121 120 120 123 124 126 128 130 131 131 131 131 131 130 130 131 129 128 128 129 129 128 126 124 123 122 120 117 114 112 112 112 112 113 111 109 108 108 110 113 118 119 102
184 181 161 153 91 35 27 59 137 122 89 100 92 99 105 101 103 107 114 114 109 101 95 97 72 42 90 93 83 81 93 68 86 104 122 146 145 145 145 139 137 129 124 122 125 128 125 126 125 122 121 120 119 119 120 121 123 124 124 124 126 127 128 128 128 128 129 129 130 131 131 132 131 131 131 130 129 127 125 123 119 117 116 116 116 117 118 118 116 115 115 115 117 120 126 141 138
181 177 173 177 49 100 103 96 167 107 115 134 106 107 94 96 101 101 106 107 104 98 99 105 90 77 85 98 120 83 108 113 120 124 128 149 147 147 147 141 139 132 127 124 128 127 124 125 123 122 122 121 121 122 123 124 124 123 122 122 124 125 126 127 128 129 129 130 131 131 132 133 133 133 133 132 130 128 126 124 122 122 122 122 123 124 126 128 125 122 119 114 113 116 135 158 145
171 171 191 230 313 279 74 58 96 91 127 122 112 110 99 97 96 95 90 88 89 93 97 95 100 98 77 65 66 109 142 127 131 136 137 146 149 148 144 143 141 136 134 131 131 127 124 125 125 125 124 124 125 126 125 123 123 122 122 123 124 125 126 128 131 132 131 132 133 133 133 134 135 134 134 132 130 129 128 127 126 127 127 127 132 136 140 140 136 131 131 127 129 141 265 283 323
164 153 191 233 300 327 83 188 117 101 119 109 112 113 106 102 101 100 93 90 88 91 96 95 104 97 84 91 84 112 131 124 131 141 146 149 151 148 143 144 144 141 139 136 136 131 128 129 129 129 127 127 127 125 122 120 122 122 123 125 126 128 128 130 134 134 133 135 135 135 135 135 136 136 136 135 134 134 133 132 132 133 135 139 143 148 151 150 152 157 162 163 164 171 209 245 272
171 153 149 145 4 46 118 154 108 102 115 108 117 121 117 114 109 104 99 99 98 98 102 109 112 93 85 102 93 109 114 119 129 140 148 148 150 149 146 145 144 144 143 141 140 136 134 135 133 131 129 129 128 125 122 122 122 123 124 125 127 128 130 132 135 137 137 138 139 137 138 138 140 142 142 141 141 140 140 139 141 144 147 151 156 160 162 164 169 179 184 180 186 182 194 223 233
186 201 26 115 73 64 98 96 82 101 114 109 118 124 122 118 111 104 101 96 98 98 97 112 120 101 100 99 96 108 108 119 129 138 146 147 150 150 147 146 145 146 146 144 142 139 138 139 136 134 132 131 130 127 125 125 126 125 124 126 129 130 133 136 137 139 141 141 142 141 143 144 147 148 148 147 146 145 146 148 150 154 158 162 166 169 170 173 175 184 189 185 198 200 209 234 242
189 204 176 94 77 75 80 47 70 99 108 105 107 111 109 109 108 105 104 99 97 89 89 93 95 108 118 110 101 117 121 128 131 137 146 149 151 149 148 148 148 148 148 148 145 142 141 141 139 137 135 133 132 131 129 129 129 128 128 131 133 133 136 139 139 142 144 144 146 148 149 149 150 151 151 151 149 150 152 155 159 163 167 172 173 173 174 178 184 193 199 208 221 231 236 249 254
181 219 136 76 77 86 108 89 76 87 94 94 96 102 103 105 102 100 101 98 96 97 105 96 90 107 114 106 99 127 133 137 137 141 149 151 150 148 150 152 152 151 151 150 147 143 142 144 142 140 138 135 136 135 134 133 132 132 133 134 136 138 139 141 143 145 146 148 151 154 154 154 154 155 155 155 155 156 159 161 163 167 172 179 181 181 183 188 203 218 228 238 240 250 255 259 261
58 316 60 80 99 110 135 100 93 102 101 102 104 107 109 108 105 108 109 109 113 117 127 116 114 119 107 103 121 134 139 145 145 146 148 149 149 150 154 157 156 155 154 151 149 146 146 147 146 143 141 139 139 140 139 137 137 138 138 139 140 141 141 144 147 149 150 152 155 157 158 159 160 162 162 162 162 162 163 165 167 172 181 194 203 206 206 206 217 234 243 247 248 250 254 256 257
129 155 80 88 163 142 131 107 116 111 107 119 121 123 118 113 117 122 121 125 130 125 122 120 130 128 109 116 135 142 148 151 149 147 148 148 148 149 155 160 160 160 157 153 151 152 152 151 149 147 145 144 143 143 143 141 141 143 143 143 145 146 147 150 152 154 156 157 159 162 164 167 168 169 168 166 166 164 163 167 174 183 196 206 215 218 217 217 224 236 245 250 253 251 253 256 256
161 153 107 105 297 133 119 118 132 100 107 134 134 136 124 117 128 131 130 129 126 126 129 134 136 119 116 131 140 156 156 153 151 148 149 147 146 148 153 160 162 162 158 155 155 157 157 154 152 152 151 148 146 146 147 148 148 148 149 149 149 152 154 155 158 160 162 163 165 169 172 175 177 176 172 169 167 166 167 171 182 198 212 226 237 236 227 229 236 246 257 259 261 259 258 260 263
167 109 96 107 18 47 78 134 132 108 124 143 133 126 111 117 131 130 131 127 123 134 135 142 141 122 145 158 156 166 156 153 153 149 149 146 146 148 154 160 160 160 159 159 159 159 160 157 157 157 154 151 148 151 154 155 155 154 155 156 156 156 159 162 165 167 168 170 173 176 180 183 184 182 176 172 171 172 174 177 189 213 230 249 263 261 249 244 249 259 269 270 268 263 260 264 266
140 90 77 106 145 126 226 165 130 119 142 133 116 108 103 116 128 127 134 127 129 144 142 151 155 139 156 164 153 154 152 153 152 148 148 147 148 149 154 158 159 161 161 164 163 161 162 161 164 162 159 155 154 158 163 164 163 162 162 163 161 160 164 168 171 173 174 176 181 185 188 191 190 186 182 180 182 183 186 188 197 214 230 250 262 262 258 253 257 268 277 279 275 268 268 273 272
88 87 80 134 164 172 209 171 143 136 142 118 112 113 113 122 126 124 130 127 133 145 142 143 141 134 144 150 146 148 149 152 151 146 146 147 147 148 153 158 160 163 164 166 165 161 164 167 170 167 162 159 161 167 171 170 167 168 171 171 168 166 169 173 177 178 180 182 188 192 193 197 197 194 196 196 195 197 200 198 200 215 239 256 258 256 257 259 265 276 281 282 280 279 281 281 278
121 121 119 170 178 180 187 172 168 140 126 118 121 126 125 131 134 128 127 128 132 130 127 128 122 120 129 137 143 146 150 152 150 147 148 149 149 153 158 160 160 164 167 168 166 167 174 175 173 168 165 165 168 174 179 175 171 175 182 179 174 173 174 177 180 184 187 190 195 200 201 204 207 208 210 206 204 212 214 212 214 224 243 253 255 252 249 254 263 282 288 287 288 287 287 286 286
150 133 133 194 205 188 171 164 168 137 127 128 134 135 132 139 143 142 134 130 128 121 125 128 120 117 125 137 144 148 151 152 151 151 153 156 160 163 164 162 162 167 170 171 173 176 181 179 172 170 172 173 174 179 183 181 177 183 189 187 182 179 181 183 185 190 194 197 201 206 208 210 216 219 216 210 216 231 233 227 227 230 238 248 251 243 234 248 268 297 299 291 290 285 285 291 294
171 136 145 203 191 171 165 157 155 138 131 130 140 139 135 148 152 148 132 128 134 135 141 136 127 129 134 143 146 148 151 151 152 155 158 164 168 168 167 166 167 170 173 175 176 181 186 181 173 174 177 179 183 187 188 187 184 188 194 190 186 183 186 190 193 197 200 204 208 211 214 214 218 220 217 215 222 240 245 233 231 233 244 259 260 249 243 250 277 302 303 293 289 282 277 283 286
187 167 168 187 163 153 172 159 135 123 124 127 136 134 141 156 148 135 128 127 144 150 150 145 140 140 140 145 148 150 152 151 154 158 162 168 170 171 171 172 172 171 174 176 175 181 188 184 176 178 183 184 190 193 192 192 188 191 198 193 185 186 192 197 202 205 205 209 213 215 215 217 217 219 222 223 223 233 239 232 235 240 256 270 262 254 248 240 256 282 290 288 287 279 270 272 278
176 174 146 151 155 158 168 152 129 120 116 116 120 126 147 146 125 134 136 139 161 159 152 146 142 143 143 147 149 151 153 153 157 162 167 170 170 171 170 172 172 169 172 175 176 182 188 185 180 182 188 190 192 195 195 192 191 195 200 196 187 189 196 202 208 212 211 210 215 218 215 215 216 221 226 225 224 223 224 222 224 236 254 260 249 248 240 227 248 267 278 284 288 285 279 278 282
126 142 142 153 164 157 156 142 130 126 113 108 114 123 128 117 120 143 141 145 156 151 147 142 138 140 142 145 146 150 155 157 161 165 170 169 169 173 171 170 171 170 173 179 184 186 186 185 185 187 193 195 195 197 196 191 193 198 200 202 196 195 202 208 212 216 218 213 216 222 218 215 217 223 225 225 222 214 211 214 217 230 247 251 250 252 236 216 238 262 282 296 303 302 300 296 293
127 132 150 163 164 146 140 131 122 117 113 114 113 108 112 118 128 143 133 134 140 140 140 135 134 139 142 145 148 153 157 162 166 168 171 171 172 176 174 171 173 175 177 182 188 190 188 187 189 192 196 200 199 196 194 191 193 198 203 210 209 205 212 218 221 223 227 225 226 231 226 219 222 224 222 222 219 211 211 216 218 226 243 258 267 266 254 239 243 271 302 319 325 321 316 312 305
134 136 151 157 146 129 124 120 114 111 115 115 105 96 95 109 109 119 128 129 133 135 135 133 136 140 142 146 151 155 160 167 170 170 172 173 173 175 171 168 170 175 178 181 186 190 188 188 191 195 199 203 201 194 192 191 194 198 204 212 216 216 220 225 227 226 230 233 235 239 235 229 229 227 223 224 222 217 217 222 225 228 245 272 288 287 271 256 256 287 318 326 327 324 321 319 314
151 142 144 140 127 122 121 118 118 118 123 117 104 97 95 98 92 100 127 131 133 135 135 138 141 143 143 147 153 157 163 168 168 169 171 168 169 172 168 166 170 175 180 181 184 187 187 191 194 197 201 204 201 194 191 192 194 199 203 213 221 220 223 228 228 227 229 230 235 239 238 236 234 231 229 227 224 221 222 228 234 240 255 272 284 283 265 257 261 284 307 313 318 317 317 316 314
149 136 127 128 124 122 121 119 122 121 127 124 114 113 105 94 99 111 134 134 135 136 138 145 146 148 149 151 157 160 164 167 165 164 166 163 165 169 165 166 173 179 182 182 184 184 184 190 194 197 200 201 197 190 189 193 195 201 205 214 223 225 225 229 230 231 228 224 228 235 235 233 232 233 232 226 225 226 228 235 243 250 257 266 274 269 263 261 259 274 291 295 304 309 312 310 308
136 123 102 112 119 123 125 124 131 123 122 126 116 109 90 76 110 134 144 140 139 140 143 151 153 155 153 155 161 161 163 167 165 163 164 164 166 168 167 170 174 178 181 183 184 180 180 187 189 192 196 194 192 189 191 196 198 203 207 210 219 230 228 228 233 232 224 220 224 228 229 227 227 229 226 224 232 238 239 246 252 255 259 264 266 263 263 257 251 263 273 279 294 302 304 304 304
133 120 107 119 118 127 134 134 141 127 126 130 110 92 81 95 127 140 145 145 145 143 147 156 155 155 155 158 163 160 164 167 168 168 167 168 170 171 174 178 175 176 181 183 183 179 180 184 184 188 191 186 188 193 198 202 204 207 208 210 215 222 218 219 226 221 211 211 217 221 222 223 225 224 222 227 238 244 248 253 257 261 265 267 268 267 264 256 254 262 268 280 298 301 297 297 297
124 115 120 133 114 136 154 140 138 126 137 141 115 99 147 131 137 145 149 149 149 146 152 160 156 156 159 161 165 165 166 168 170 173 172 170 173 175 176 182 181 178 180 180 182 182 183 185 187 190 191 189 192 197 202 204 211 213 215 219 218 221 218 215 219 214 205 206 213 218 218 221 223 222 224 233 241 246 248 251 255 262 267 270 273 273 269 263 265 272 279 292 307 309 303 302 297
121 117 127 131 116 168 191 155 137 127 148 146 111 119 180 162 147 150 155 153 151 152 158 161 158 161 163 166 169 171 174 176 176 176 174 171 174 177 176 180 184 181 180 180 183 186 187 188 190 192 192 193 195 199 201 203 209 213 218 224 224 226 220 213 214 209 205 209 215 215 214 218 218 220 228 239 245 245 246 249 256 265 270 274 277 279 279 277 280 285 289 300 313 318 318 320 315
114 133 146 138 130 163 194 181 147 135 156 148 101 116 171 168 162 158 156 156 153 154 163 164 161 165 167 172 173 173 180 181 178 176 176 174 175 178 177 178 182 182 182 184 186 186 189 191 191 191 192 195 198 201 203 203 204 208 218 226 229 226 216 219 220 210 208 212 216 215 214 216 217 224 234 242 247 247 251 257 264 272 274 275 276 278 284 287 290 291 295 308 319 325 326 329 330
21 135 161 154 139 149 177 215 168 141 150 166 115 133 168 172 173 167 157 158 155 156 166 165 163 169 170 174 178 174 178 183 181 179 176 174 176 178 178 180 182 184 184 185 185 185 189 192 193 194 196 199 203 204 204 203 202 209 218 219 222 217 211 223 226 218 215 209 212 218 219 222 226 231 232 237 247 253 259 261 263 267 268 271 272 273 281 288 294 300 308 317 321 324 326 328 331
240 107 141 149 149 156 166 208 197 150 151 170 143 145 171 172 170 172 165 161 158 161 168 167 166 171 175 180 183 176 177 184 184 181 176 174 177 178 179 182 184 186 186 184 185 187 190 192 195 198 200 202 204 205 204 202 204 211 214 211 214 218 218 224 223 220 217 209 212 219 225 229 228 227 228 232 242 249 253 253 253 256 258 262 264 264 269 284 302 314 318 318 314 314 318 327 333
186 162 136 148 161 168 171 180 189 165 156 156 145 151 167 165 168 173 172 165 163 170 170 167 169 173 180 185 184 178 181 188 184 181 178 174 177 179 180 181 183 186 186 186 189 191 192 193 197 199 203 204 203 205 204 204 210 214 213 211 214 220 221 224 225 226 226 221 218 217 218 220 219 223 230 230 231 241 247 246 244 248 248 247 252 257 265 286 304 309 308 305 302 305 311 325 337
185 176 154 165 173 181 182 175 176 167 156 153 153 157 161 164 173 176 174 170 168 173 171 168 173 177 182 186 187 180 181 190 183 179 177 176 180 182 182 182 183 185 187 189 192 194 196 197 198 200 204 205 203 205 207 206 212 216 219 221 223 227 230 234 239 243 241 234 231 225 213 212 216 219 222 209 190 188 239 258 255 256 253 246 249 257 267 280 288 292 293 291 293 300 304 313 329
203 184 163 172 174 191 193 177 177 163 151 170 165 158 164 169 177 178 173 172 171 173 174 174 176 180 183 183 188 184 181 182 175 175 178 180 183 182 182 182 182 184 187 190 193 196 200 201 200 202 204 203 202 205 207 208 211 214 219 227 233 236 239 245 250 253 250 240 237 238 225 215 211 196 176 150 132 120 86 359 302 292 285 266 259 267 272 270 278 294 297 289 287 290 294 305 320
232 205 180 183 180 193 193 175 176 163 144 176 169 156 168 174 177 179 171 172 178 177 175 178 179 180 183 182 185 184 172 164 165 171 176 179 179 178 179 180 180 182 185 189 192 196 200 203 202 202 202 201 203 207 208 211 215 218 223 230 237 239 242 248 254 261 262 250 234 229 222 210 190 157 139 132 138 141 129 282 288 296 301 285 275 278 273 267 278 294 293 285 284 282 283 297 309
237 236 211 207 194 174 189 178 174 167 139 169 173 162 174 182 178 178 176 178 182 180 177 178 178 177 179 182 183 178 165 163 167 168 172 175 173 172 174 177 179 181 184 188 192 195 199 202 202 202 204 204 208 212 212 214 218 222 228 235 240 240 239 243 252 259 263 249 231 228 233 229 182 137 132 143 161 175 199 222 250 281 305 304 297 288 276 276 289 291 285 279 280 278 275 292 306
228 238 226 220 202 154 200 189 172 170 137 161 168 159 176 187 184 183 184 184 180 180 181 178 178 177 178 182 179 173 171 170 171 170 172 172 170 169 172 176 179 180 182 185 190 193 195 199 201 202 204 208 211 213 215 218 221 223 227 234 241 241 237 233 231 226 225 229 208 206 228 214 164 147 146 146 152 161 178 192 204 271 325 330 333 326 306 311 311 296 290 283 277 269 265 294 316
230 220 209 198 192 203 220 176 159 134 77 150 141 104 203 197 195 198 193 189 182 179 180 179 183 183 177 177 177 176 175 172 173 175 175 172 171 173 175 177 179 181 183 186 190 193 195 198 203 205 205 206 210 212 215 218 220 219 219 224 231 233 233 228 213 198 192 172 147 142 149 152 150 151 146 133 132 130 123 110 73 54 24 13 1 359 360 357 344 328 327 321 295 266 261 296 319
250 221 201 191 196 211 203 157 147 92 79 172 145 127 241 233 210 208 192 185 189 182 180 182 184 183 177 176 179 180 176 174 176 178 177 175 174 176 179 180 182 185 188 189 193 196 198 201 205 207 204 204 208 211 213 214 215 214 213 216 218 216 219 221 209 182 156 145 141 142 145 145 146 150 146 137 129 119 107 89 70 67 57 61 45 21 25 24 18 18 20 12 5 346 309 312 316
256 226 197 197 197 189 168 161 159 131 179 195 171 153 200 233 228 219 193 181 192 190 187 186 182 182 181 181 182 180 177 177 179 180 179 177 176 178 182 184 185 190 192 192 194 197 200 203 204 204 203 204 206 207 210 213 213 212 215 219 217 213 209 200 186 170 156 149 146 148 149 147 149 149 144 137 123 113 108 98 84 65 41 33 32 30 27 32 38 39 38 29 29 21 341 327 327
248 237 200 194 183 172 166 167 175 167 148 179 190 125 116 196 224 210 186 182 194 197 193 191 188 187 186 184 184 182 180 178 177 181 181 179 180 180 184 187 189 192 193 192 194 197 200 201 201 202 204 204 203 203 209 213 212 211 212 209 203 199 192 177 169 166 159 154 152 152 154 156 164 153 109 105 111 112 120 117 34 1 8 24 37 40 29 35 46 41 38 29 15 9 347 337 339
242 238 208 185 174 179 174 173 181 158 119 166 212 127 109 220 248 171 174 193 201 202 198 194 192 191 189 186 186 186 183 180 178 180 182 183 183 183 185 187 190 192 192 192 195 197 199 199 199 201 204 204 203 204 208 210 212 210 200 188 177 175 176 171 169 171 170 174 181 190 198 200 207 234 23 85 142 136 273 273 4 357 357 14 21 16 11 10 14 13 19 14 4 7 3 357 359
242 228 205 176 135 168 175 172 164 134 137 184 206 190 147 250 255 166 174 206 210 206 199 196 193 192 193 189 188 188 185 183 182 180 181 183 184 184 184 185 188 191 191 192 195 197 197 197 198 200 202 204 206 207 208 209 208 199 188 182 176 173 176 177 178 183 191 202 211 216 216 212 210 212 112 133 179 239 255 259 349 357 2 16 11 6 14 11 355 358 6 7 6 9 13 13 16
236 215 206 222 39 77 131 103 103 132 189 211 203 198 182 231 246 190 185 206 207 199 192 193 194 194 196 193 190 188 185 184 185 184 184 183 183 181 180 182 186 189 189 191 193 195 196 197 198 200 203 205 207 208 207 203 195 189 189 190 190 187 186 186 189 194 201 204 205 209 205 194 189 203 199 167 196 222 216 264 329 349 4 13 6 0 9 7 358 1 7 10 12 10 14 17 12
214 186 170 216 318 23 45 7 52 152 232 237 206 199 191 221 249 211 208 216 207 192 185 186 191 195 196 194 191 188 185 184 185 186 185 181 178 177 178 181 184 185 186 188 191 194 195 196 198 200 203 204 205 204 199 193 190 193 199 201 200 199 199 202 206 207 209 210 209 206 195 187 195 212 212 208 206 202 215 273 312 337 353 353 349 346 346 349 350 349 348 355 0 358 358 359 356
202 187 106 148 269 351 110 255 216 190 242 239 191 183 193 224 231 214 214 221 215 197 189 184 186 191 190 191 192 187 184 185 186 185 183 179 176 176 179 181 182 182 184 186 190 192 193 195 197 199 201 202 201 199 195 194 196 200 205 206 205 205 206 208 208 206 207 208 204 195 190 191 200 204 206 205 192 193 238 278 291 306 321 322 320 324 326 331 336 336 336 340 345 344 340 341 341
193 185 137 146 159 120 194 233 225 211 258 256 185 171 196 241 243 222 209 214 214 201 188 181 184 187 185 186 189 186 186 188 186 183 182 181 180 179 180 181 181 182 184 186 188 191 191 193 195 197 199 199 197 195 196 199 201 205 207 206 204 204 203 200 201 202 202 202 202 199 199 201 199 198 202 198 193 219 259 266 255 268 294 301 301 307 315 319 323 322 323 324 323 325 324 322 324
201 172 143 157 158 152 196 205 191 205 234 254 201 170 195 207 235 225 208 215 212 189 176 175 182 186 182 182 184 184 187 188 186 184 184 183 182 181 181 183 183 183 184 185 187 189 190 191 193 195 195 195 195 196 199 201 202 205 206 203 204 203 201 202 206 211 212 210 211 212 214 216 214 213 215 218 228 243 250 245 243 260 281 288 291 300 309 315 316 314 311 306 301 302 302 301 303
224 145 120 168 175 157 182 193 186 182 199 240 210 198 215 207 268 287 188 193 172 161 165 166 172 178 174 179 183 184 187 187 186 187 187 186 183 182 183 184 185 185 184 185 187 188 189 190 192 194 195 195 197 199 201 202 203 204 203 202 205 203 204 210 212 212 213 213 215 219 222 222 221 223 227 233 240 240 236 237 246 262 276 281 287 296 304 309 310 309 305 299 292 288 286 286 286
215 177 174 205 172 146 162 234 235 104 152 252 241 269 299 280 319 349 86 129 142 156 167 169 170 168 170 180 184 183 186 186 187 188 188 187 184 184 186 186 186 186 185 186 188 189 189 190 191 193 195 196 197 200 201 201 202 202 202 202 205 205 207 212 210 209 211 212 219 225 224 224 226 227 227 229 232 230 232 242 253 267 277 281 287 295 302 306 308 308 305 301 294 288 286 282 274
156 200 208 200 137 123 120 197 315 54 164 274 297 254 276 230 267 321 83 146 163 169 172 173 172 167 172 183 183 184 186 185 187 189 188 186 184 185 187 189 189 189 188 189 190 190 190 190 191 191 193 195 197 200 200 200 199 200 202 202 205 208 210 211 212 214 213 214 221 222 221 228 227 222 220 224 229 232 241 253 260 269 275 280 289 296 300 303 305 307 308 309 307 301 293 281 270
150 182 186 154 159 187 104 153 169 101 204 274 300 269 242 199 221 233 184 182 181 174 170 172 176 177 180 182 181 182 184 182 184 186 187 188 188 188 189 191 193 192 192 192 191 190 190 190 191 192 194 197 198 198 198 198 198 200 202 203 205 208 210 210 212 213 212 212 214 212 218 228 224 223 226 228 236 244 249 256 260 269 277 283 290 294 297 299 301 304 305 308 311 307 298 285 275
160 140 162 171 167 175 183 166 158 160 193 233 280 299 274 225 217 199 191 188 175 168 174 183 185 185 185 179 174 179 180 180 183 184 190 192 190 191 191 192 194 195 194 193 190 190 190 191 192 193 194 196 197 197 197 196 197 200 203 204 205 208 210 210 208 208 209 210 211 210 221 234 234 236 236 234 244 250 251 257 265 274 279 283 288 291 296 297 297 301 301 302 303 298 294 292 285
186 152 180 221 86 147 174 187 151 143 152 184 220 270 268 248 215 190 188 182 176 178 182 188 187 186 189 183 177 180 179 179 183 186 191 193 193 195 195 194 194 194 193 192 190 190 190 191 192 193 193 193 195 197 197 196 196 199 202 203 206 208 208 208 208 210 211 210 210 213 226 241 241 241 241 242 250 254 257 264 270 277 281 285 290 293 299 300 297 296 295 297 297 291 291 294 291
173 165 184 188 148 127 161 229 284 128 146 168 176 220 262 260 200 185 189 184 183 182 178 182 187 188 193 189 179 177 176 179 186 190 191 192 195 196 195 194 192 191 191 191 190 190 190 192 193 193 192 193 195 196 196 196 195 197 202 205 206 207 206 206 209 212 212 210 210 218 231 237 237 240 245 250 256 257 260 264 266 274 282 289 295 296 298 299 296 294 291 291 292 289 290 289 285